RYR4696 GCRR-LEAL

Flight info

Callsign RYR4696
Flight time 3h 1m
Altitude 38000
Route KORAL UG5 SONSO DCT NIRAL UN871 OSDAM UM985 BARPA DCT XAVIR DCT PIMOS M445 ETURA T252 XEBAR M985 ASTRO
Aircraft B38M/M-SDE1FGHILORVWXY/HB1

Departure

Time 2026-04-29 16:08
Airport César Manrique-Lanzarote Airport (GCRR)

Arrival

Time 2026-04-29 19:09
Airport Alicante-Elche Miguel Hernández Airport (LEAL)
Time Latitude Longitude Altitude Speed Heading
2026-04-29 15:55 28.94914 -13.60813 50 ft 0 kts 298°
2026-04-29 16:01 28.94897 -13.60779 53 ft 4 kts 300°
2026-04-29 16:02 28.94888 -13.60761 53 ft 4 kts 297°
2026-04-29 16:02 28.94878 -13.60733 47 ft 2 kts 282°
2026-04-29 16:02 28.94877 -13.60715 53 ft 3 kts 238°
2026-04-29 16:02 28.94891 -13.60696 53 ft 4 kts 204°
2026-04-29 16:03 28.94916 -13.60689 47 ft 4 kts 203°
2026-04-29 16:03 28.94925 -13.60684 53 ft 0 kts 209°
2026-04-29 16:04 28.94924 -13.60685 49 ft 1 kts 209°
2026-04-29 16:05 28.94911 -13.60689 51 ft 1 kts 167°
2026-04-29 16:05 28.94907 -13.60681 53 ft 4 kts 115°
2026-04-29 16:05 28.94878 -13.60599 49 ft 16 kts 116°
2026-04-29 16:05 28.94808 -13.60577 48 ft 12 kts 202°
2026-04-29 16:06 28.94725 -13.60626 51 ft 15 kts 206°
2026-04-29 16:06 28.94603 -13.60696 46 ft 26 kts 206°
2026-04-29 16:06 28.94390 -13.60820 34 ft 41 kts 207°
2026-04-29 16:06 28.94121 -13.60975 29 ft 46 kts 207°
2026-04-29 16:07 28.93832 -13.61142 26 ft 39 kts 208°
2026-04-29 16:07 28.93682 -13.61218 30 ft 16 kts 173°
2026-04-29 16:07 28.93617 -13.61128 27 ft 17 kts 106°
2026-04-29 16:07 28.93674 -13.61026 28 ft 12 kts 26°
2026-04-29 16:08 28.93852 -13.60924 29 ft 70 kts 27°
2026-04-29 16:08 28.94592 -13.60498 41 ft 163 kts 26°
2026-04-29 16:08 28.95655 -13.59866 861 ft 181 kts 31°
2026-04-29 16:08 28.96730 -13.59063 2049 ft 193 kts 38°
2026-04-29 16:09 28.97896 -13.58041 2920 ft 225 kts 38°
2026-04-29 16:09 28.99198 -13.56898 4088 ft 244 kts 38°
2026-04-29 16:09 29.00591 -13.55678 5237 ft 263 kts 40°
2026-04-29 16:09 29.01857 -13.54127 6080 ft 271 kts 51°
2026-04-29 16:10 29.03041 -13.52424 7091 ft 277 kts 51°
2026-04-29 16:10 29.04256 -13.50685 8091 ft 283 kts 50°
2026-04-29 16:10 29.05506 -13.48903 9044 ft 291 kts 50°
2026-04-29 16:10 29.06786 -13.47077 9951 ft 299 kts 51°
2026-04-29 16:11 29.08106 -13.45198 10827 ft 308 kts 51°
2026-04-29 16:11 29.09504 -13.43291 11679 ft 317 kts 44°
2026-04-29 16:11 29.11264 -13.41756 12657 ft 321 kts 27°
2026-04-29 16:11 29.13318 -13.40696 13627 ft 327 kts 21°
2026-04-29 16:12 29.15423 -13.39649 14632 ft 333 kts 22°
2026-04-29 16:12 29.17563 -13.38568 15617 ft 340 kts 22°
2026-04-29 16:12 29.19741 -13.37457 16579 ft 345 kts 22°
2026-04-29 16:12 29.21954 -13.36323 17489 ft 352 kts 22°
2026-04-29 16:13 29.24207 -13.35164 18347 ft 358 kts 22°
2026-04-29 16:13 29.26439 -13.33848 19182 ft 366 kts 34°
2026-04-29 16:13 29.28247 -13.31784 20050 ft 371 kts 53°
2026-04-29 16:13 29.29765 -13.29368 20800 ft 377 kts 54°
2026-04-29 16:14 29.31300 -13.26911 21584 ft 381 kts 54°
2026-04-29 16:14 29.32839 -13.24420 22347 ft 385 kts 55°
2026-04-29 16:14 29.34389 -13.21892 23088 ft 390 kts 55°
2026-04-29 16:14 29.35933 -13.19363 23772 ft 395 kts 55°
2026-04-29 16:15 29.37513 -13.16772 24471 ft 399 kts 55°
2026-04-29 16:15 29.39110 -13.14149 25141 ft 403 kts 55°
2026-04-29 16:15 29.40723 -13.11499 25775 ft 408 kts 55°
2026-04-29 16:15 29.42355 -13.08814 26385 ft 412 kts 55°
2026-04-29 16:16 29.44001 -13.06106 26980 ft 417 kts 55°
2026-04-29 16:16 29.45668 -13.03361 27542 ft 421 kts 55°
2026-04-29 16:16 29.47351 -13.00587 28112 ft 425 kts 55°
2026-04-29 16:16 29.49047 -12.97789 28665 ft 429 kts 55°
2026-04-29 16:17 29.50759 -12.94962 29166 ft 434 kts 55°
2026-04-29 16:17 29.52487 -12.92106 29689 ft 438 kts 55°
2026-04-29 16:17 29.54232 -12.89224 30187 ft 441 kts 55°
2026-04-29 16:17 29.55990 -12.86314 30659 ft 445 kts 55°
2026-04-29 16:18 29.57762 -12.83383 31122 ft 449 kts 55°
2026-04-29 16:18 29.59550 -12.80420 31565 ft 453 kts 55°
2026-04-29 16:18 29.61349 -12.77437 32016 ft 456 kts 55°
2026-04-29 16:18 29.63164 -12.74426 32444 ft 460 kts 55°
2026-04-29 16:19 29.64990 -12.71394 32896 ft 462 kts 55°
2026-04-29 16:19 29.66825 -12.68345 33305 ft 466 kts 55°
2026-04-29 16:19 29.68674 -12.65271 33705 ft 469 kts 55°
2026-04-29 16:19 29.70538 -12.62169 34102 ft 473 kts 55°
2026-04-29 16:20 29.72411 -12.59050 34502 ft 475 kts 55°
2026-04-29 16:20 29.74286 -12.55908 34968 ft 476 kts 55°
2026-04-29 16:20 29.76149 -12.52758 35475 ft 475 kts 55°
2026-04-29 16:20 29.78008 -12.49616 35987 ft 474 kts 55°
2026-04-29 16:21 29.79862 -12.46483 36450 ft 474 kts 55°
2026-04-29 16:21 29.81712 -12.43353 36874 ft 474 kts 55°
2026-04-29 16:21 29.83541 -12.40254 37312 ft 472 kts 55°
2026-04-29 16:21 29.85403 -12.37099 37812 ft 470 kts 55°
2026-04-29 16:22 29.87218 -12.34021 37982 ft 470 kts 55°
2026-04-29 16:22 29.90866 -12.27828 37961 ft 465 kts 55°
2026-04-29 16:23 29.94496 -12.21655 37946 ft 465 kts 55°
2026-04-29 16:23 29.98122 -12.15481 37943 ft 465 kts 55°
2026-04-29 16:24 30.01993 -12.09540 37923 ft 460 kts 40°
2026-04-29 16:24 30.06769 -12.04627 37931 ft 461 kts 39°
2026-04-29 16:25 30.11576 -11.99732 37937 ft 461 kts 39°
2026-04-29 16:25 30.16397 -11.94847 37938 ft 461 kts 39°
2026-04-29 16:26 30.21216 -11.89959 37935 ft 461 kts 39°
2026-04-29 16:26 30.26031 -11.85069 37938 ft 461 kts 39°
2026-04-29 16:27 30.30841 -11.80177 37952 ft 461 kts 39°
2026-04-29 16:27 30.35647 -11.75284 37953 ft 460 kts 39°
2026-04-29 16:28 30.40414 -11.70422 37952 ft 459 kts 39°
2026-04-29 16:28 30.45209 -11.65528 37946 ft 459 kts 39°
2026-04-29 16:29 30.49999 -11.60629 37945 ft 459 kts 39°
2026-04-29 16:29 30.54781 -11.55732 37942 ft 458 kts 39°
2026-04-29 16:30 30.59559 -11.50834 37937 ft 458 kts 39°
2026-04-29 16:30 30.64335 -11.45929 37934 ft 458 kts 39°
2026-04-29 16:31 30.69103 -11.41026 37935 ft 458 kts 39°
2026-04-29 16:31 30.73864 -11.36126 37934 ft 457 kts 39°
2026-04-29 16:32 30.78616 -11.31227 37925 ft 456 kts 39°
2026-04-29 16:32 30.83361 -11.26328 37926 ft 456 kts 39°
2026-04-29 16:33 30.90437 -11.19010 37924 ft 455 kts 39°
2026-04-29 16:33 30.95169 -11.14109 37926 ft 455 kts 39°
2026-04-29 16:34 30.99904 -11.09196 37918 ft 455 kts 39°
2026-04-29 16:34 31.04624 -11.04294 37914 ft 454 kts 39°
2026-04-29 16:35 31.09338 -10.99390 37923 ft 455 kts 39°
2026-04-29 16:35 31.14056 -10.94476 37923 ft 454 kts 39°
2026-04-29 16:36 31.18765 -10.89564 37927 ft 454 kts 39°
2026-04-29 16:36 31.23468 -10.84651 37926 ft 453 kts 39°
2026-04-29 16:37 31.28162 -10.79741 37926 ft 453 kts 39°
2026-04-29 16:37 31.32064 -10.75654 37924 ft 453 kts 39°
2026-04-29 16:38 31.37553 -10.69897 37927 ft 453 kts 39°
2026-04-29 16:38 31.42249 -10.64964 37923 ft 453 kts 39°
2026-04-29 16:39 31.46907 -10.60064 37926 ft 453 kts 39°
2026-04-29 16:39 31.51594 -10.55126 37927 ft 453 kts 39°
2026-04-29 16:40 31.56277 -10.50188 37933 ft 453 kts 39°
2026-04-29 16:40 31.60952 -10.45249 37933 ft 452 kts 39°
2026-04-29 16:41 31.65623 -10.40308 37936 ft 452 kts 39°
2026-04-29 16:41 31.70292 -10.35362 37928 ft 452 kts 39°
2026-04-29 16:42 31.74955 -10.30415 37937 ft 452 kts 39°
2026-04-29 16:42 31.79617 -10.25463 37934 ft 452 kts 39°
2026-04-29 16:43 31.84274 -10.20508 37935 ft 451 kts 39°
2026-04-29 16:43 31.88929 -10.15550 37935 ft 452 kts 39°
2026-04-29 16:44 31.93584 -10.10583 37934 ft 452 kts 40°
2026-04-29 16:44 31.98202 -10.05650 37934 ft 451 kts 40°
2026-04-29 16:45 32.02856 -10.00670 37934 ft 452 kts 40°
2026-04-29 16:45 32.07505 -9.95688 37936 ft 452 kts 40°
2026-04-29 16:46 32.12154 -9.90701 37932 ft 452 kts 40°
2026-04-29 16:46 32.16799 -9.85709 37934 ft 452 kts 40°
2026-04-29 16:47 32.21441 -9.80713 37934 ft 452 kts 40°
2026-04-29 16:47 32.26082 -9.75712 37931 ft 452 kts 40°
2026-04-29 16:48 32.30724 -9.70703 37942 ft 452 kts 40°
2026-04-29 16:48 32.35361 -9.65691 37945 ft 452 kts 40°
2026-04-29 16:49 32.39965 -9.60708 37944 ft 452 kts 40°
2026-04-29 16:49 32.44595 -9.55690 37945 ft 452 kts 40°
2026-04-29 16:50 32.49226 -9.50662 37945 ft 452 kts 40°
2026-04-29 16:50 32.53857 -9.45628 37943 ft 452 kts 40°
2026-04-29 16:51 32.58489 -9.40586 37945 ft 452 kts 40°
2026-04-29 16:51 32.63121 -9.35535 37947 ft 452 kts 40°
2026-04-29 16:52 32.67750 -9.30481 37935 ft 452 kts 40°
2026-04-29 16:52 32.72378 -9.25421 37934 ft 452 kts 40°
2026-04-29 16:53 32.77007 -9.20352 37934 ft 452 kts 40°
2026-04-29 16:53 32.81631 -9.15279 37934 ft 452 kts 40°
2026-04-29 16:54 32.86254 -9.10203 37934 ft 453 kts 40°
2026-04-29 16:54 32.90877 -9.05117 37931 ft 453 kts 40°
2026-04-29 16:55 32.94722 -9.00881 37935 ft 453 kts 40°
2026-04-29 16:55 32.99349 -8.95779 37936 ft 453 kts 41°
2026-04-29 16:56 33.04722 -8.89842 37933 ft 453 kts 41°
2026-04-29 16:56 33.08595 -8.85557 37934 ft 453 kts 41°
2026-04-29 16:57 33.13179 -8.80478 37933 ft 453 kts 41°
2026-04-29 16:57 33.17800 -8.75350 37934 ft 454 kts 41°
2026-04-29 16:58 33.22425 -8.70210 37932 ft 454 kts 41°
2026-04-29 16:58 33.27047 -8.65065 37933 ft 454 kts 41°
2026-04-29 16:59 33.31665 -8.59919 37935 ft 454 kts 41°
2026-04-29 16:59 33.36278 -8.54768 37935 ft 454 kts 41°
2026-04-29 17:00 33.40893 -8.49608 37934 ft 454 kts 41°
2026-04-29 17:00 33.45508 -8.44441 37936 ft 455 kts 41°
2026-04-29 17:01 33.50131 -8.39256 37934 ft 455 kts 41°
2026-04-29 17:01 33.54747 -8.34071 37933 ft 455 kts 41°
2026-04-29 17:02 33.59361 -8.28881 37935 ft 455 kts 41°
2026-04-29 17:02 33.63950 -8.23710 37934 ft 455 kts 41°
2026-04-29 17:03 33.68564 -8.18504 37929 ft 455 kts 41°
2026-04-29 17:03 33.73179 -8.13289 37934 ft 455 kts 41°
2026-04-29 17:04 33.77787 -8.08072 37935 ft 455 kts 41°
2026-04-29 17:04 33.82395 -8.02848 37932 ft 455 kts 41°
2026-04-29 17:05 33.87000 -7.97619 37932 ft 455 kts 41°
2026-04-29 17:05 33.91607 -7.92380 37936 ft 455 kts 41°
2026-04-29 17:06 33.96208 -7.87139 37935 ft 455 kts 41°
2026-04-29 17:06 34.00804 -7.81897 37935 ft 455 kts 41°
2026-04-29 17:07 34.05401 -7.76645 37933 ft 455 kts 41°
2026-04-29 17:07 34.09993 -7.71390 37933 ft 455 kts 41°
2026-04-29 17:08 34.14558 -7.66157 37936 ft 456 kts 41°
2026-04-29 17:08 34.19159 -7.60875 37933 ft 456 kts 41°
2026-04-29 17:09 34.23749 -7.55598 37931 ft 455 kts 41°
2026-04-29 17:09 34.28347 -7.50303 37937 ft 457 kts 41°
2026-04-29 17:10 34.32945 -7.45000 37929 ft 456 kts 41°
2026-04-29 17:10 34.37539 -7.39693 37932 ft 457 kts 41°
2026-04-29 17:11 34.42139 -7.34369 37934 ft 457 kts 41°
2026-04-29 17:11 34.46736 -7.29042 37933 ft 458 kts 41°
2026-04-29 17:12 34.51338 -7.23698 37936 ft 458 kts 41°
2026-04-29 17:12 34.55158 -7.19258 37933 ft 458 kts 41°
2026-04-29 17:13 34.60539 -7.12992 37935 ft 459 kts 41°
2026-04-29 17:13 34.65143 -7.07621 37935 ft 459 kts 41°
2026-04-29 17:14 34.69742 -7.02248 37932 ft 459 kts 41°
2026-04-29 17:14 34.74316 -6.96895 37934 ft 459 kts 41°
2026-04-29 17:15 34.78914 -6.91506 37935 ft 459 kts 41°
2026-04-29 17:15 34.83515 -6.86104 37932 ft 459 kts 41°
2026-04-29 17:16 34.88109 -6.80701 37936 ft 459 kts 41°
2026-04-29 17:16 34.92707 -6.75285 37935 ft 459 kts 41°
2026-04-29 17:17 34.97299 -6.69867 37945 ft 460 kts 41°
2026-04-29 17:17 35.01897 -6.64432 37943 ft 460 kts 41°
2026-04-29 17:18 35.06487 -6.58999 37944 ft 460 kts 41°
2026-04-29 17:18 35.11077 -6.53558 37945 ft 460 kts 41°
2026-04-29 17:19 35.15667 -6.48106 37946 ft 460 kts 41°
2026-04-29 17:19 35.20257 -6.42645 37948 ft 461 kts 41°
2026-04-29 17:20 35.24816 -6.37212 37942 ft 461 kts 41°
2026-04-29 17:20 35.29406 -6.31734 37939 ft 461 kts 41°
2026-04-29 17:21 35.33997 -6.26247 37940 ft 462 kts 41°
2026-04-29 17:21 35.38588 -6.20751 37939 ft 461 kts 41°
2026-04-29 17:22 35.43181 -6.15244 37945 ft 462 kts 41°
2026-04-29 17:22 35.47772 -6.09730 37944 ft 462 kts 41°
2026-04-29 17:23 35.52356 -6.04216 37941 ft 462 kts 41°
2026-04-29 17:23 35.56953 -5.98675 37940 ft 463 kts 41°
2026-04-29 17:24 35.61543 -5.93134 37938 ft 463 kts 41°
2026-04-29 17:24 35.66133 -5.87585 37937 ft 462 kts 41°
2026-04-29 17:25 35.70715 -5.82035 37931 ft 462 kts 41°
2026-04-29 17:25 35.75296 -5.76479 37933 ft 462 kts 41°
2026-04-29 17:26 35.79875 -5.70913 37936 ft 462 kts 41°
2026-04-29 17:26 35.84239 -5.65100 37913 ft 465 kts 56°
2026-04-29 17:27 35.87758 -5.58387 37930 ft 467 kts 54°
2026-04-29 17:27 35.91311 -5.51749 37936 ft 467 kts 55°
2026-04-29 17:28 35.94903 -5.45014 37931 ft 467 kts 55°
2026-04-29 17:28 35.98472 -5.38308 37929 ft 469 kts 55°
2026-04-29 17:29 36.02059 -5.31555 37939 ft 469 kts 55°
2026-04-29 17:29 36.05021 -5.25966 37929 ft 468 kts 55°
2026-04-29 17:30 36.09181 -5.18104 37934 ft 467 kts 55°
2026-04-29 17:30 36.12703 -5.11434 37935 ft 466 kts 55°
2026-04-29 17:31 36.16246 -5.04712 37932 ft 466 kts 55°
2026-04-29 17:31 36.19782 -4.97989 37935 ft 466 kts 55°
2026-04-29 17:32 36.23316 -4.91256 37935 ft 466 kts 55°
2026-04-29 17:32 36.26847 -4.84516 37934 ft 466 kts 55°
2026-04-29 17:33 36.30371 -4.77777 37927 ft 466 kts 55°
2026-04-29 17:33 36.33890 -4.71032 37927 ft 466 kts 55°
2026-04-29 17:34 36.37407 -4.64279 37927 ft 466 kts 55°
2026-04-29 17:34 36.40917 -4.57525 37922 ft 466 kts 55°
2026-04-29 17:35 36.46153 -4.47427 37915 ft 466 kts 55°
2026-04-29 17:36 36.49654 -4.40657 37915 ft 466 kts 55°
2026-04-29 17:36 36.53151 -4.33882 37915 ft 466 kts 55°
2026-04-29 17:37 36.56643 -4.27103 37916 ft 466 kts 55°
2026-04-29 17:37 36.60133 -4.20315 37918 ft 465 kts 55°
2026-04-29 17:38 36.63616 -4.13526 37915 ft 465 kts 55°
2026-04-29 17:38 36.67095 -4.06732 37916 ft 465 kts 55°
2026-04-29 17:39 36.70570 -3.99931 37916 ft 465 kts 55°
2026-04-29 17:39 36.74037 -3.93131 37929 ft 464 kts 55°
2026-04-29 17:40 36.77496 -3.86336 37930 ft 464 kts 55°
2026-04-29 17:40 36.80945 -3.79545 37917 ft 463 kts 55°
2026-04-29 17:41 36.84384 -3.72760 37943 ft 463 kts 55°
2026-04-29 17:41 36.87794 -3.66020 37922 ft 462 kts 55°
2026-04-29 17:42 36.91245 -3.59183 37932 ft 462 kts 55°
2026-04-29 17:42 36.94641 -3.52442 37943 ft 461 kts 56°
2026-04-29 17:43 36.98053 -3.45655 37921 ft 461 kts 55°
2026-04-29 17:43 37.01460 -3.38866 37931 ft 461 kts 56°
2026-04-29 17:44 37.04862 -3.32073 37943 ft 461 kts 56°
2026-04-29 17:44 37.08258 -3.25275 37939 ft 460 kts 56°
2026-04-29 17:45 37.11649 -3.18478 37925 ft 459 kts 56°
2026-04-29 17:45 37.15024 -3.11696 37940 ft 455 kts 56°
2026-04-29 17:46 37.18348 -3.05005 37938 ft 451 kts 56°
2026-04-29 17:46 37.21656 -2.98332 37929 ft 450 kts 56°
2026-04-29 17:47 37.24958 -2.91656 37933 ft 450 kts 56°
2026-04-29 17:47 37.28249 -2.84991 37933 ft 449 kts 56°
2026-04-29 17:48 37.31531 -2.78329 37936 ft 449 kts 56°
2026-04-29 17:48 37.34256 -2.72790 37930 ft 448 kts 56°
2026-04-29 17:49 37.38059 -2.65040 37933 ft 448 kts 56°
2026-04-29 17:49 37.41325 -2.58372 37938 ft 448 kts 56°
2026-04-29 17:50 37.44585 -2.51702 37935 ft 447 kts 56°
2026-04-29 17:50 37.47289 -2.46161 37937 ft 447 kts 56°
2026-04-29 17:51 37.50536 -2.39493 37935 ft 446 kts 56°
2026-04-29 17:51 37.53778 -2.32823 37930 ft 446 kts 56°
2026-04-29 17:52 37.57012 -2.26154 37925 ft 446 kts 56°
2026-04-29 17:52 37.60244 -2.19475 37930 ft 446 kts 56°
2026-04-29 17:53 37.63471 -2.12794 37925 ft 446 kts 56°
2026-04-29 17:53 37.66695 -2.06107 37923 ft 446 kts 56°
2026-04-29 17:54 37.69908 -1.99427 37925 ft 445 kts 56°
2026-04-29 17:54 37.73117 -1.92746 37918 ft 445 kts 56°
2026-04-29 17:55 37.76301 -1.86105 37916 ft 445 kts 56°
2026-04-29 17:55 37.79502 -1.79414 37919 ft 445 kts 56°
2026-04-29 17:56 37.82698 -1.72721 37923 ft 445 kts 56°
2026-04-29 17:56 37.85891 -1.66020 37927 ft 445 kts 56°
2026-04-29 17:57 37.89081 -1.59314 37925 ft 445 kts 56°
2026-04-29 17:57 37.92047 -1.52450 37906 ft 447 kts 71°
2026-04-29 17:57 37.92632 -1.48600 37924 ft 447 kts 88°
2026-04-29 17:58 37.92412 -1.44692 37923 ft 445 kts 105°
2026-04-29 17:58 37.91371 -1.41049 37917 ft 437 kts 124°
2026-04-29 17:58 37.89549 -1.38060 37911 ft 424 kts 144°
2026-04-29 17:58 37.87120 -1.36088 37905 ft 408 kts 166°
2026-04-29 17:59 37.84421 -1.35444 37908 ft 388 kts 190°
2026-04-29 17:59 37.81889 -1.36221 37909 ft 368 kts 214°
2026-04-29 17:59 37.79984 -1.38234 37909 ft 354 kts 239°
2026-04-29 17:59 37.79006 -1.41035 37935 ft 350 kts 256°
2026-04-29 18:00 37.78243 -1.43978 37892 ft 355 kts 245°
2026-04-29 18:00 37.75809 -1.49409 37909 ft 354 kts 251°
2026-04-29 18:01 37.73607 -1.55004 37925 ft 358 kts 244°
2026-04-29 18:01 37.72732 -1.57913 37899 ft 353 kts 261°
2026-04-29 18:01 37.72748 -1.60996 37917 ft 355 kts 281°
2026-04-29 18:01 37.73689 -1.63844 37919 ft 362 kts 300°
2026-04-29 18:02 37.75445 -1.66167 37913 ft 374 kts 319°
2026-04-29 18:02 37.77808 -1.67654 37912 ft 388 kts 338°
2026-04-29 18:02 37.80529 -1.68080 37917 ft 404 kts 357°
2026-04-29 18:02 37.83318 -1.67326 37917 ft 419 kts 17°
2026-04-29 18:03 37.85818 -1.65346 37918 ft 433 kts 39°
2026-04-29 18:03 37.87706 -1.62345 37923 ft 441 kts 58°
2026-04-29 18:03 37.89176 -1.58918 37922 ft 444 kts 56°
2026-04-29 18:04 37.92113 -1.52055 37878 ft 446 kts 73°
2026-04-29 18:04 37.92615 -1.48190 37914 ft 446 kts 90°
2026-04-29 18:04 37.92302 -1.44301 37929 ft 444 kts 107°
2026-04-29 18:04 37.91170 -1.40708 37903 ft 436 kts 126°
2026-04-29 18:05 37.89270 -1.37811 37908 ft 423 kts 146°
2026-04-29 18:05 37.86796 -1.35974 37906 ft 405 kts 169°
2026-04-29 18:05 37.84090 -1.35485 37904 ft 385 kts 193°
2026-04-29 18:05 37.81610 -1.36413 37909 ft 366 kts 217°
2026-04-29 18:06 37.79818 -1.38510 37907 ft 353 kts 242°
2026-04-29 18:06 37.78913 -1.41352 37933 ft 350 kts 256°
2026-04-29 18:06 37.78138 -1.44292 37895 ft 355 kts 245°
2026-04-29 18:07 37.75682 -1.49712 37913 ft 354 kts 251°
2026-04-29 18:07 37.73466 -1.55309 37923 ft 358 kts 245°
2026-04-29 18:07 37.72666 -1.58248 37898 ft 353 kts 263°
2026-04-29 18:08 37.72779 -1.61328 37915 ft 355 kts 283°
2026-04-29 18:08 37.73832 -1.64166 37913 ft 364 kts 303°
2026-04-29 18:08 37.75711 -1.66385 37922 ft 381 kts 322°
2026-04-29 18:08 37.78200 -1.67707 37926 ft 399 kts 342°
2026-04-29 18:09 37.81012 -1.67939 37934 ft 414 kts
2026-04-29 18:09 37.83829 -1.66961 37927 ft 428 kts 22°
2026-04-29 18:09 37.86266 -1.64756 37928 ft 438 kts 44°
2026-04-29 18:09 37.88054 -1.61611 37938 ft 444 kts 60°
2026-04-29 18:10 37.89545 -1.58173 37922 ft 446 kts 56°
2026-04-29 18:10 37.92314 -1.51184 37884 ft 446 kts 78°
2026-04-29 18:10 37.92644 -1.47300 37930 ft 444 kts 94°
2026-04-29 18:11 37.92186 -1.43454 37938 ft 440 kts 111°
2026-04-29 18:11 37.90926 -1.39981 37920 ft 429 kts 130°
2026-04-29 18:11 37.88940 -1.37272 37927 ft 414 kts 150°
2026-04-29 18:11 37.86445 -1.35671 37926 ft 396 kts 173°
2026-04-29 18:12 37.83782 -1.35423 37923 ft 377 kts 196°
2026-04-29 18:12 37.81401 -1.36553 37924 ft 361 kts 219°
2026-04-29 18:12 37.79733 -1.38814 37921 ft 351 kts 244°
2026-04-29 18:13 37.78009 -1.44592 37910 ft 356 kts 239°
2026-04-29 18:13 37.75521 -1.49967 37948 ft 354 kts 249°
2026-04-29 18:14 37.73255 -1.55527 37931 ft 357 kts 245°
2026-04-29 18:14 37.72512 -1.58483 37923 ft 354 kts 263°
2026-04-29 18:14 37.72695 -1.61582 37930 ft 359 kts 284°
2026-04-29 18:14 37.73827 -1.64422 37931 ft 369 kts 303°
2026-04-29 18:15 37.75753 -1.66639 37928 ft 384 kts 322°
2026-04-29 18:15 37.78257 -1.67949 37934 ft 399 kts 342°
2026-04-29 18:15 37.81070 -1.68145 37926 ft 415 kts
2026-04-29 18:15 37.83873 -1.67115 37923 ft 428 kts 23°
2026-04-29 18:16 37.86285 -1.64854 37924 ft 439 kts 45°
2026-04-29 18:16 37.88014 -1.61720 37931 ft 444 kts 61°
2026-04-29 18:16 37.89491 -1.58278 37923 ft 446 kts 56°
2026-04-29 18:17 37.92294 -1.51306 37895 ft 446 kts 78°
2026-04-29 18:17 37.92638 -1.47363 37934 ft 445 kts 94°
2026-04-29 18:17 37.92176 -1.43522 37932 ft 440 kts 111°
2026-04-29 18:17 37.90913 -1.40058 37922 ft 429 kts 130°
2026-04-29 18:18 37.88922 -1.37353 37927 ft 414 kts 150°
2026-04-29 18:18 37.86421 -1.35752 37923 ft 396 kts 173°
2026-04-29 18:18 37.83759 -1.35498 37925 ft 377 kts 196°
2026-04-29 18:18 37.81378 -1.36622 37924 ft 361 kts 219°
2026-04-29 18:19 37.79708 -1.38885 37924 ft 351 kts 244°
2026-04-29 18:19 37.77926 -1.44597 37916 ft 356 kts 239°
2026-04-29 18:20 37.75619 -1.50096 37946 ft 355 kts 248°
2026-04-29 18:20 37.73272 -1.55616 37938 ft 357 kts 244°
2026-04-29 18:20 37.72499 -1.58564 37924 ft 354 kts 263°
2026-04-29 18:21 37.72657 -1.61661 37930 ft 359 kts 283°
2026-04-29 18:21 37.73774 -1.64506 37941 ft 369 kts 303°
2026-04-29 18:21 37.75701 -1.66718 37927 ft 384 kts 323°
2026-04-29 18:21 37.78212 -1.68008 37934 ft 399 kts 342°
2026-04-29 18:22 37.81032 -1.68182 37927 ft 415 kts
2026-04-29 18:22 37.83835 -1.67144 37928 ft 429 kts 23°
2026-04-29 18:22 37.86254 -1.64890 37928 ft 439 kts 45°
2026-04-29 18:22 37.88010 -1.61714 37938 ft 444 kts 61°
2026-04-29 18:23 37.89479 -1.58264 37924 ft 446 kts 56°
2026-04-29 18:23 37.92280 -1.51295 37900 ft 447 kts 78°
2026-04-29 18:23 37.92622 -1.47404 37938 ft 445 kts 94°
2026-04-29 18:24 37.92166 -1.43561 37929 ft 440 kts 111°
2026-04-29 18:24 37.90906 -1.40100 37924 ft 429 kts 130°
2026-04-29 18:24 37.88910 -1.37394 37928 ft 414 kts 150°
2026-04-29 18:24 37.86411 -1.35799 37927 ft 396 kts 173°
2026-04-29 18:25 37.83749 -1.35549 37925 ft 377 kts 196°
2026-04-29 18:25 37.81370 -1.36673 37926 ft 361 kts 219°
2026-04-29 18:25 37.79698 -1.38937 37924 ft 351 kts 244°
2026-04-29 18:26 37.77934 -1.44703 37911 ft 355 kts 238°
2026-04-29 18:26 37.75460 -1.50073 37945 ft 354 kts 250°
2026-04-29 18:27 37.73230 -1.55657 37943 ft 357 kts 244°
2026-04-29 18:27 37.72424 -1.58593 37923 ft 354 kts 262°
2026-04-29 18:27 37.72536 -1.61649 37928 ft 358 kts 282°
2026-04-29 18:27 37.73608 -1.64516 37939 ft 369 kts 302°
2026-04-29 18:28 37.75509 -1.66764 37921 ft 384 kts 322°
2026-04-29 18:28 37.78011 -1.68064 37936 ft 399 kts 342°
2026-04-29 18:28 37.80825 -1.68249 37926 ft 415 kts
2026-04-29 18:28 37.83638 -1.67251 37926 ft 428 kts 22°
2026-04-29 18:29 37.86087 -1.65055 37922 ft 438 kts 44°
2026-04-29 18:29 37.87353 -1.63054 37929 ft 443 kts 56°
2026-04-29 18:29 37.89373 -1.58482 37923 ft 446 kts 56°
2026-04-29 18:30 37.92228 -1.51537 37890 ft 447 kts 76°
2026-04-29 18:30 37.92632 -1.47660 37936 ft 445 kts 93°
2026-04-29 18:30 37.92241 -1.43800 37931 ft 441 kts 110°
2026-04-29 18:30 37.91037 -1.40301 37926 ft 430 kts 129°
2026-04-29 18:31 37.89088 -1.37531 37922 ft 415 kts 149°
2026-04-29 18:31 37.86611 -1.35850 37923 ft 397 kts 171°
2026-04-29 18:31 37.83949 -1.35503 37925 ft 378 kts 194°
2026-04-29 18:31 37.81532 -1.36533 37922 ft 362 kts 218°
2026-04-29 18:32 37.79793 -1.38721 37921 ft 352 kts 242°
2026-04-29 18:32 37.76667 -1.47085 37939 ft 357 kts 239°
2026-04-29 18:33 37.74526 -1.52707 37921 ft 357 kts 242°
2026-04-29 18:33 37.72392 -1.58329 37921 ft 354 kts 260°
2026-04-29 18:34 37.72408 -1.61428 37933 ft 358 kts 280°
2026-04-29 18:34 37.72625 -1.62413 37924 ft 360 kts 287°
2026-04-29 18:34 37.75234 -1.66642 37933 ft 382 kts 320°
2026-04-29 18:34 37.77700 -1.68029 37937 ft 398 kts 341°
2026-04-29 18:35 37.80501 -1.68312 37936 ft 413 kts 360°
2026-04-29 18:35 37.83294 -1.67449 37923 ft 427 kts 19°
2026-04-29 18:35 37.85807 -1.65389 37924 ft 438 kts 41°
2026-04-29 18:35 37.87679 -1.62333 37927 ft 444 kts 59°
2026-04-29 18:36 37.90832 -1.55589 37947 ft 446 kts 57°
2026-04-29 18:36 37.92127 -1.52019 37890 ft 447 kts 74°
2026-04-29 18:36 37.92632 -1.48160 37931 ft 445 kts 91°
2026-04-29 18:37 37.92343 -1.44279 37937 ft 442 kts 107°
2026-04-29 18:37 37.91243 -1.40710 37924 ft 431 kts 126°
2026-04-29 18:37 37.89384 -1.37822 37926 ft 417 kts 146°
2026-04-29 18:37 37.86963 -1.35973 37929 ft 399 kts 168°
2026-04-29 18:38 37.84302 -1.35434 37932 ft 380 kts 191°
2026-04-29 18:38 37.81825 -1.36287 37931 ft 364 kts 214°
2026-04-29 18:38 37.79971 -1.38342 37936 ft 353 kts 239°
2026-04-29 18:38 37.79020 -1.41161 37957 ft 351 kts 254°
2026-04-29 18:39 37.78210 -1.44097 37919 ft 355 kts 243°
2026-04-29 18:39 37.76827 -1.46685 37963 ft 357 kts 237°
2026-04-29 18:39 37.75682 -1.49448 37937 ft 354 kts 250°
2026-04-29 18:39 37.74664 -1.52285 37929 ft 357 kts 242°
2026-04-29 18:40 37.72519 -1.57910 37924 ft 354 kts 258°
2026-04-29 18:40 37.72460 -1.61007 37945 ft 357 kts 278°
2026-04-29 18:40 37.72956 -1.62995 37936 ft 363 kts 292°
2026-04-29 18:41 37.79380 -1.68193 37945 ft 407 kts 352°
2026-04-29 18:41 37.83139 -1.67437 37937 ft 426 kts 18°
2026-04-29 18:42 37.85689 -1.65473 37941 ft 437 kts 39°
2026-04-29 18:42 37.87073 -1.63541 37943 ft 442 kts 53°
2026-04-29 18:42 37.90225 -1.56800 37952 ft 446 kts 55°
2026-04-29 18:43 37.91738 -1.53430 37925 ft 448 kts 68°
2026-04-29 18:43 37.92545 -1.49593 37940 ft 445 kts 85°
2026-04-29 18:43 37.92538 -1.45692 37952 ft 444 kts 101°
2026-04-29 18:43 37.91741 -1.42016 37927 ft 435 kts 119°
2026-04-29 18:44 37.90149 -1.38834 37936 ft 423 kts 139°
2026-04-29 18:44 37.87903 -1.36563 37928 ft 407 kts 160°
2026-04-29 18:44 37.85279 -1.35524 37936 ft 388 kts 182°
2026-04-29 18:44 37.82685 -1.35880 37940 ft 369 kts 206°
2026-04-29 18:45 37.80561 -1.37534 37939 ft 356 kts 230°
2026-04-29 18:45 37.79294 -1.40154 37944 ft 350 kts 252°
2026-04-29 18:45 37.77323 -1.45800 37957 ft 356 kts 236°
2026-04-29 18:46 37.75994 -1.48440 37921 ft 355 kts 248°
2026-04-29 18:46 37.75070 -1.51330 37948 ft 356 kts 246°
2026-04-29 18:46 37.72824 -1.56906 37932 ft 355 kts 253°
2026-04-29 18:47 37.72523 -1.59978 37940 ft 356 kts 273°
2026-04-29 18:47 37.73184 -1.63002 37938 ft 364 kts 293°
2026-04-29 18:47 37.74707 -1.65543 37952 ft 376 kts 312°
2026-04-29 18:47 37.76985 -1.67347 37937 ft 392 kts 333°
2026-04-29 18:48 37.79655 -1.68072 37946 ft 408 kts 352°
2026-04-29 18:48 37.82514 -1.67647 37939 ft 422 kts 12°
2026-04-29 18:48 37.85170 -1.65995 37939 ft 434 kts 34°
2026-04-29 18:48 37.87275 -1.63221 37942 ft 442 kts 54°
2026-04-29 18:49 37.90418 -1.56479 37955 ft 446 kts 56°
2026-04-29 18:49 37.91858 -1.53000 37923 ft 447 kts 70°
2026-04-29 18:49 37.92569 -1.49187 37952 ft 446 kts 86°
2026-04-29 18:50 37.92492 -1.45286 37950 ft 443 kts 103°
2026-04-29 18:50 37.91607 -1.41598 37932 ft 434 kts 121°
2026-04-29 18:50 37.89935 -1.38496 37932 ft 421 kts 141°
2026-04-29 18:50 37.87633 -1.36341 37938 ft 404 kts 162°
2026-04-29 18:51 37.84994 -1.35448 37936 ft 385 kts 185°
2026-04-29 18:51 37.82430 -1.35961 37940 ft 367 kts 209°
2026-04-29 18:51 37.80383 -1.37746 37941 ft 355 kts 233°
2026-04-29 18:51 37.79223 -1.40442 37959 ft 350 kts 253°
2026-04-29 18:52 37.77247 -1.46084 37953 ft 356 kts 235°
2026-04-29 18:52 37.75901 -1.48711 37919 ft 355 kts 247°
2026-04-29 18:52 37.74977 -1.51601 37946 ft 356 kts 246°
2026-04-29 18:53 37.72795 -1.56847 37935 ft 355 kts 251°
2026-04-29 18:53 37.72317 -1.59872 37950 ft 353 kts 266°
2026-04-29 18:53 37.72464 -1.62969 37945 ft 352 kts 277°
2026-04-29 18:54 37.73089 -1.65949 37277 ft 354 kts 288°
2026-04-29 18:54 37.74278 -1.68731 36110 ft 368 kts 301°
2026-04-29 18:54 37.76045 -1.71158 34802 ft 385 kts 315°
2026-04-29 18:54 37.78350 -1.73023 33469 ft 403 kts 330°
2026-04-29 18:55 37.81069 -1.74070 32351 ft 415 kts 346°
2026-04-29 18:55 37.83969 -1.74110 31498 ft 421 kts
2026-04-29 18:55 37.86792 -1.73085 30631 ft 426 kts 20°
2026-04-29 18:55 37.89284 -1.71053 29765 ft 429 kts 38°
2026-04-29 18:56 37.91206 -1.68168 28892 ft 429 kts 54°
2026-04-29 18:56 37.92898 -1.65092 27999 ft 423 kts 49°
2026-04-29 18:56 37.94746 -1.62222 27169 ft 417 kts 49°
2026-04-29 18:56 37.96558 -1.59378 26196 ft 415 kts 49°
2026-04-29 18:57 37.98407 -1.56538 24912 ft 420 kts 49°
2026-04-29 18:57 38.00265 -1.53673 23884 ft 418 kts 50°
2026-04-29 18:57 38.02081 -1.50834 22983 ft 412 kts 50°
2026-04-29 18:57 38.03863 -1.48021 22083 ft 406 kts 50°
2026-04-29 18:58 38.05598 -1.45284 21225 ft 400 kts 51°
2026-04-29 18:58 38.07326 -1.42550 20341 ft 395 kts 51°
2026-04-29 18:58 38.09033 -1.39852 19472 ft 389 kts 51°
2026-04-29 18:58 38.10718 -1.37189 18607 ft 384 kts 51°
2026-04-29 18:59 38.12376 -1.34566 17756 ft 379 kts 51°
2026-04-29 18:59 38.14015 -1.31974 16900 ft 374 kts 51°
2026-04-29 18:59 38.15631 -1.29417 16095 ft 368 kts 51°
2026-04-29 18:59 38.17220 -1.26903 15281 ft 362 kts 51°
2026-04-29 19:00 38.18793 -1.24416 14442 ft 359 kts 51°
2026-04-29 19:00 38.20346 -1.21959 13623 ft 355 kts 51°
2026-04-29 19:00 38.21849 -1.19510 12817 ft 349 kts 57°
2026-04-29 19:00 38.22773 -1.16711 12037 ft 341 kts 81°
2026-04-29 19:01 38.22909 -1.13745 11235 ft 333 kts 95°
2026-04-29 19:01 38.22785 -1.10824 10455 ft 328 kts 96°
2026-04-29 19:01 38.22636 -1.07960 9713 ft 322 kts 96°
2026-04-29 19:01 38.22476 -1.05141 8962 ft 317 kts 96°
2026-04-29 19:02 38.22302 -1.02333 8208 ft 311 kts 96°
2026-04-29 19:02 38.22185 -1.00531 7726 ft 307 kts 96°
2026-04-29 19:02 38.21905 -0.96960 6732 ft 300 kts 97°
2026-04-29 19:02 38.21876 -0.94327 5943 ft 298 kts 81°
2026-04-29 19:03 38.22658 -0.91938 5403 ft 294 kts 55°
2026-04-29 19:03 38.24179 -0.90198 5070 ft 297 kts 30°
2026-04-29 19:03 38.26073 -0.89175 4964 ft 297 kts 22°
2026-04-29 19:03 38.27997 -0.88217 4884 ft 296 kts 21°
2026-04-29 19:04 38.29833 -0.87043 4588 ft 296 kts 38°
2026-04-29 19:04 38.31178 -0.85117 4240 ft 289 kts 61°
2026-04-29 19:04 38.31784 -0.82788 3912 ft 269 kts 85°
2026-04-29 19:04 38.31685 -0.80532 3660 ft 249 kts 100°
2026-04-29 19:05 38.31379 -0.78413 3389 ft 229 kts 102°
2026-04-29 19:05 38.31103 -0.76505 3100 ft 210 kts 101°
2026-04-29 19:05 38.30860 -0.74775 2832 ft 188 kts 101°
2026-04-29 19:05 38.30643 -0.73216 2602 ft 172 kts 101°
2026-04-29 19:06 38.30440 -0.71767 2376 ft 162 kts 101°
2026-04-29 19:06 38.30254 -0.70428 2181 ft 148 kts 101°
2026-04-29 19:06 38.29918 -0.68015 1817 ft 133 kts 102°
2026-04-29 19:07 38.29759 -0.66867 1636 ft 131 kts 102°
2026-04-29 19:07 38.29654 -0.66114 1519 ft 131 kts 100°
2026-04-29 19:07 38.29440 -0.64592 1285 ft 130 kts 101°
2026-04-29 19:07 38.29282 -0.63458 1107 ft 130 kts 99°
2026-04-29 19:08 38.29125 -0.62322 942 ft 132 kts 99°
2026-04-29 19:08 38.28960 -0.61137 799 ft 135 kts 99°
2026-04-29 19:08 38.28802 -0.59975 597 ft 132 kts 99°
2026-04-29 19:08 38.28641 -0.58835 396 ft 131 kts 99°
2026-04-29 19:09 38.28481 -0.57702 235 ft 130 kts 99°
2026-04-29 19:09 38.28328 -0.56598 124 ft 119 kts 101°
2026-04-29 19:09 38.28217 -0.55807 107 ft 33 kts 94°
2026-04-29 19:09 38.28262 -0.55477 96 ft 29 kts 72°
2026-04-29 19:10 38.28320 -0.55284 91 ft 26 kts 63°
2026-04-29 19:10 38.28394 -0.55156 92 ft 10 kts 31°
2026-04-29 19:10 38.28439 -0.55179 93 ft 7 kts 281°
2026-04-29 19:10 38.28450 -0.55263 91 ft 12 kts 279°
2026-04-29 19:11 38.28466 -0.55382 94 ft 15 kts 280°
2026-04-29 19:11 38.28487 -0.55530 97 ft 19 kts 284°
2026-04-29 19:11 38.28516 -0.55711 101 ft 23 kts 280°
2026-04-29 19:11 38.28545 -0.55923 102 ft 20 kts 281°
2026-04-29 19:12 38.28580 -0.55958 102 ft 7 kts
2026-04-29 19:12 38.28616 -0.55950 102 ft 0 kts 12°